Regional Weather Roundup
Issued by NWS Upton, NY

Current Version | Previous Version | Text Only | Print | Product List | Glossary On
Versions: 1 2 3 4 5 6 7 8 9 10 11 12 13 14 15 16 17 18 19 20 21 22 23 24 25 26 27 28 29 30 31 32 33 34 35 36 37 38 39 40 41 42 43 44 45 46 47 48 49 50
000
ASUS41 KOKX 282005
RWROKX

REGIONAL WEATHER ROUNDUP
NATIONAL WEATHER SERVICE NEW YORK NY
300 PM EST WED JAN 28 2015

NOTE: "FAIR" INDICATES FEW OR NO CLOUDS BELOW 12,000 FEET WITH NO
SIGNIFICANT WEATHER AND/OR OBSTRUCTIONS TO VISIBILITY.

NYZ071-072-176-178-NJZ106-104-282100-
NEW YORK CITY METRO AREA


CITY           SKY/WX    TMP DP  RH WIND       PRES   REMARKS
CENTRAL PARK   SUNNY     33   8  35 NW8       30.09R WCI  26
LAGUARDIA APRT SUNNY     33  10  38 NW13      30.07R WCI  24
KENNEDY INTL   MOSUNNY   32  10  40 NW17      30.08R WCI  21
NEWARK/LIBERTY SUNNY     33   8  35 NW14G25   30.09R WCI  23
BRNX BOT. GARD   N/A    N/A N/A N/A W6        30.10R
TETERBORO      SUNNY     32   6  33 NW13      30.08R WCI  22
$$

NYZ177-179-078>081-282100-
LONG ISLAND NEW YORK

CITY           SKY/WX    TMP DP  RH WIND       PRES   REMARKS
FARMINGDALE    SUNNY     32  11  41 N16G32    30.06R WCI  21
ISLIP          MOSUNNY   28  11  48 NW15G24   30.03R WCI  16
SHIRLEY        SUNNY     27   9  46 NW18G25   30.06R WCI  14
WESTHAMPTON    SUNNY     26  11  52 NW21G30   30.05R WCI  12
MONTAUK POINT    N/A     27  10  49 NW10      30.03R WCI  17
$$

NYZ052-065-067-282100-
HUDSON VALLEY

CITY           SKY/WX    TMP DP  RH WIND       PRES   REMARKS
WHITE PLAINS   SUNNY     30   8  39 NW20G25   30.04R WCI  17
NEWBURGH       SUNNY     30  10  43 N9        30.07R WCI  22
MONTGOMERY     NOT AVBL
POUGHKEEPSIE   SUNNY     29   6  38 N10       30.09R WCI  20
ALBANY         MOSUNNY   22   0  38 N13       30.14R WCI  10
$$

NJZ001-105-106-008-010-013-015-019>022-104-282100-
NEW JERSEY

CITY           SKY/WX    TMP DP  RH WIND       PRES   REMARKS
NEWARK/LIBERTY SUNNY     33   8  35 NW14G25   30.09R WCI  23
TETERBORO      SUNNY     32   6  33 NW13      30.08R WCI  22
CALDWELL       SUNNY     32   5  32 MISG      30.09R
MORRISTOWN     SUNNY     34   5  29 N16G26    30.09R WCI  23
SOMERVILLE     NOT AVBL
SUSSEX         SUNNY     31   4  31 N10       30.08R WCI  22
ANDOVER          N/A     31   4  31 N10G23    30.08R WCI  22
TRENTON        SUNNY     32   6  33 NW13G24   30.10R WCI  22
MILLVILLE      SUNNY     34   3  27 NW14G25   30.13R WCI  25
ATLANTIC CITY  SUNNY     33  10  38 NW20G28   30.10R WCI  21
WRIGHTSTOWN    SUNNY     32   9  38 NW12      30.09R WCI  23
TOMS RIVER     SUNNY     30  10  43 NW15      30.09S WCI  19
BELMAR         SUNNY     30  10  43 NW16G22   30.07R WCI  19
$$

PAZ047>061-062-071-282100-
EASTERN PENNSYLVANIA

CITY           SKY/WX    TMP DP  RH WIND       PRES   REMARKS
PHILADELPHIA   SUNNY     34   1  24 NW14      30.15R WCI  25
ALLENTOWN      SUNNY     31   4  31 NW16G23   30.12S WCI  20
SCRANTON       SUNNY     28   5  37 NW9       30.13R WCI  19
$$

CTZ002-004>006-009-010-012-RIZ004-006-007-MAZ004-011-015-282100-
SOUTHERN NEW ENGLAND
 IN CT

CITY           SKY/WX    TMP DP  RH WIND       PRES   REMARKS
BRADLEY INTL   MOSUNNY   26   9  48 NE9       30.03R WCI  17
HARTFORD       SUNNY     25   9  50 NE9       30.05R WCI  15
DANBURY        SUNNY     27   6  41 NW13G24   30.06R WCI  16
WTRBRY/OXFORD  SUNNY     25   7  46 N21G26    30.02R WCI  10
BRIDGEPORT     SUNNY     28  10  46 NW15      30.05R WCI  16
MERIDEN        SUNNY     28  10  46 NW15      30.04R WCI  16
NEW HAVEN      SUNNY     28  10  46 NW8G18    30.04R WCI  20
CHESTER        FAIR      27  10  50 N14       30.01R WCI  15
GROTON         SUNNY     25   9  50 NW10      30.02R WCI  15
WILLIMANTIC    MOSUNNY   25   8  48 NW14G23   30.02R WCI  13

 IN RI

CITY           SKY/WX    TMP DP  RH WIND       PRES   REMARKS
PROVIDENCE     MOSUNNY   25   7  46 NW13      30.00R WCI  14
BLOCK ISLAND   FAIR      25   7  46 NW7       29.99R WCI  17
WESTERLY       SUNNY     26   8  46 N13       30.01R WCI  15

 IN MA

CITY           SKY/WX    TMP DP  RH WIND       PRES   REMARKS
BOSTON         PTSUNNY   24   9  52 NW13      30.00R WCI  12
WORCESTER      MOSUNNY   21   7  54 NW15G26   29.95R WCI   8
WESTFIELD      MOSUNNY   27   8  44 NW14G23   30.03R WCI  16
PROVINCETOWN   CLOUDY    25  14  63 NW18      29.97R WCI  11
NANTUCKET      CLOUDY    24  15  68 N15       29.97R WCI  11
$$

ANZ330-335-338-340-345-350-353-355-282100-
COASTAL MARINE OBSERVATIONS


STATION/POSITION TIME  SKY/WX   TEMP    WIND        PRES    VSBY  WAVE
                                AIR SEA DIR/SP/G                  HT/PER
                 (UTC)          (F)     (DEG/KT/KT) (MB)    (MI)  (FT/S)
NY HARB ENTRANCE 2000            32 40  320/ 17/ 21 1017.6          3/12
4S FIRE IS       NOT AVBL
20S FIRE ISLAND  1900               42              1017.1          4/11
23SW MTP         2000                                 N/A           4/11
HUDSON CANYON    NOT AVBL
EXECUTION ROCKS  2000            32 34  310/ 12/ 17   N/A
WESTERN LI SOUND 2000            32     350/ 14/ 19   N/A           1
CENTRAL LI SOUND 1900            25 35  330/ 14/ 19   N/A           2/ 3
EASTERN LI SOUND NOT AVBL
ROBBINS REEF     2000            31     320/ 17/ 22 1017.3
$$


>>>>>>>>>>>>>>>>>>>>>>>>>>>> KEY <<<<<<<<<<<<<<<<<<<<<<<<<<<
>                                                          <
>     SKY/WX - SKY CONDITION/PRESENT WEATHER               <
>     TMP    - TEMPERATURE IN FAHRENHEIT                   <
>     DP     - DEWPOINT IN FAHRENHEIT                      <
>     RH     - RELATIVE HUMIDITY IN PERCENT                <
>     WIND   - DIRECTION AND SPEED IN MPH                  <
>     PRES   - MEAN SEA LEVEL PRESSURE IN INCHES OF HG     <
>     WCI    - WIND CHILL INDEX                            <
>     VSB    - VISIBILITY IN MILES                         <
>     HX     - HEAT INDEX                                  <
>     TC     - TEMPERATURE IN CELSIUS                      <
>     VRB    - VARIABLE WIND DIRECTION                     <
>                                                          <
>>>>>>>>>>>>>>>>>>>>>>>>>>>> KEY <<<<<<<<<<<<<<<<<<<<<<<<<<<




USA.gov is the U.S. government's official web portal to all federal, state and local government web resources and services.